Accueil
METAR-TAF:

METAR-TAF

Aéroports :

Corvallis, Oregon, États-Unis

latitude: 44-30N, longitude: 123-17W, altitude: 75 m

Observation

Le bulletin a été fait il y a 1 heure et 6 minutes, à 09:56 UTC
Vent 9 kt de sud
Température 16°C
Humidité 88%
Pression 1016 hPa
Visibilité: 16.1 km
Quelques nuages à une hauteur de 2100 ft
Ciel couvert à une hauteur de 3900 ft

METAR: KCVO 220956Z AUTO 18009KT 10SM FEW021 OVC039 16/14 A3000 RMK AO2 SLP156 T01560139

Heure: 04:02 (11:02 UTC)


TAF: absent

Observations et prévisions météorologiques de plus de 4000 aéroports (messages METAR et TAF).

Les stations disponibles sont représentées par des disques jaunes et rouges sur la carte.

Passer la souris dessus pour voir le nom de la station.

Cliquer dessus pour voir les observations et prévisions météorologiques.

Pour changer de carte: cliquez sur les boutons verts avec une croix noire pour zoomer, sur le bouton vert avec un tiret pour effectuer un zoom arrière, ou sur les flèches vertes pour les cartes adjacentes.


METAR-TAF: